User: anonymous
Location: Unspecified
(0.0000°N, 0.0000°E)
Time: 10:00:10
(UTC+00:00)
Language:

USA 229 - Orbit

View from above orbital plane
View from above orbital plane
View from above satellite
View from above satellite

Ground track
Ground track

The orbit data is extracted from the following two-line orbital elements,

1 37386U 11014A   14095.94137356 0.00000000  00000-0  00000-0 0    04
2 37386  63.4405 108.2229 0038844 170.1415 189.8585 13.40641470    05
Epoch (UTC): 05 April 2014 22:35:34
Eccentricity: 0.0038844
inclination: 63.4405°
perigee height: 1078 km
apogee height: 1136 km
right ascension of ascending node: 108.2229°
argument of perigee: 170.1415°
revolutions per day: 13.40641470
mean anomaly at epoch: 189.8585°
orbit number at epoch: 0

The dashed part of the orbit path shows where the satellite is in the earth's shadow,  

DLR